EW5586 Weather Reports


time (UTC)temp
C
wind
direction
speed
KPH
gust
KPH
rain 1hr
cm
rain 24hr
cm
rain mn
cm
humidity
%
barometer
mb
20260502232641 6 200 12.9 17.7 0.00 0.00 0.00 84 1012.7
20260502232140 6 211 12.9 17.7 0.00 0.00 0.00 83 1012.7
20260502231640 6 0 12.9 17.7 0.00 0.00 0.00 83 1012.7
20260502231141 6 213 9.7 17.7 0.00 0.00 0.00 81 1012.7
20260502230640 6 205 6.4 14.5 0.00 0.00 0.00 79 1012.7
20260502230140 6 217 8.0 14.5 0.00 0.00 0.00 78 1012.7
20260502225141 6 210 9.7 16.1 0.00 0.00 0.00 77 1012.6
20260502224640 6 193 8.0 16.1 0.00 0.00 0.00 77 1012.6
20260502224141 6 227 8.0 14.5 0.00 0.00 0.00 77 1012.5
20260502223139 6 234 14.5 19.3 0.00 0.00 0.00 78 1012.5
20260502222638 6 0 16.1 24.1 0.00 0.00 0.00 78 1012.5
20260502222138 6 205 16.1 24.1 0.00 0.00 0.00 80 1012.5
20260502221639 6 227 16.1 22.5 0.00 0.00 0.00 80 1012.5
20260502221138 6 182 16.1 22.5 0.00 0.00 0.00 79 1012.5
20260502220640 6 207 14.5 24.1 0.00 0.00 0.00 78 1012.4
20260502220138 6 199 14.5 24.1 0.00 0.00 0.00 77 1012.4
20260502215136 6 0 12.9 25.7 0.00 0.00 0.00 77 1012.5
20260502214634 6 207 16.1 25.7 0.00 0.00 0.00 79 1012.4
20260502213634 6 213 17.7 25.7 0.00 0.00 0.00 77 1012.5
20260502213134 6 0 14.5 25.7 0.00 0.00 0.00 76 1012.5
20260502212634 6 213 11.3 22.5 0.00 0.00 0.00 77 1012.5
20260502212135 6 206 6.4 17.7 0.00 0.00 0.00 76 1012.5
20260502211634 6 234 3.2 12.9 0.00 0.00 0.00 77 1012.5
20260502211134 6 248 3.2 12.9 0.00 0.00 0.00 76 1012.5
20260502210134 6 238 4.8 16.1 0.00 0.00 0.00 76 1012.5
20260502205634 6 0 6.4 16.1 0.00 0.00 0.00 76 1012.5
20260502205135 6 247 8.0 19.3 0.00 0.00 0.00 76 1012.5
20260502204634 6 223 11.3 25.7 0.00 0.00 0.00 75 1012.5
20260502204132 6 222 14.5 25.7 0.00 0.00 0.00 75 1012.4
20260502203632 6 219 12.9 22.5 0.00 0.00 0.00 74 1012.5
20260502202633 6 202 8.0 16.1 0.00 0.00 0.00 74 1012.4
20260502202132 6 221 8.0 19.3 0.00 0.00 0.00 74 1012.4
20260502201632 6 211 11.3 24.1 0.00 0.00 0.00 74 1012.5
20260502201132 6 232 11.3 24.1 0.00 0.00 0.00 74 1012.4
20260502200633 7 219 8.0 20.9 0.00 0.00 0.00 75 1012.5
20260502200133 7 161 8.0 20.9 0.00 0.00 0.00 73 1012.5
20260502195132 7 240 14.5 29.0 0.00 0.00 0.00 73 1012.5
20260502194632 7 224 20.9 32.2 0.00 0.00 0.00 75 1012.5
20260502194131 7 216 20.9 32.2 0.00 0.00 0.00 77 1012.5
20260502193121 7 0 16.1 29.0 0.00 0.00 0.00 75 1012.6
20260502192618 7 233 11.3 22.5 0.00 0.00 0.00 72 1012.6
20260502192118 7 228 14.5 25.7 0.00 0.00 0.00 72 1012.5
20260502191617 7 221 19.3 29.0 0.00 0.00 0.00 74 1012.4
20260502191117 7 0 19.3 29.0 0.00 0.00 0.00 77 1012.4
20260502190614 7 222 17.7 24.1 0.00 0.00 0.00 78 1012.5
20260502190112 7 0 17.7 24.1 0.00 0.00 0.00 77 1012.5
20260502185612 7 201 16.1 20.9 0.00 0.00 0.00 78 1012.4
20260502185110 7 0 16.1 24.1 0.00 0.00 0.00 79 1012.4
20260502184610 7 194 16.1 24.1 0.00 0.00 0.00 77 1012.4
20260502184108 7 224 16.1 22.5 0.00 0.00 0.00 78 1012.3
20260502183605 7 219 16.1 22.5 0.00 0.00 0.00 78 1012.3
20260502183106 7 192 16.1 22.5 0.00 0.00 0.00 77 1012.3
20260502182606 6 0 16.1 22.5 0.00 0.00 0.00 77 1012.4
20260502182106 6 197 17.7 24.1 0.00 0.00 0.00 76 1012.4
20260502180558 6 217 20.9 27.4 0.00 0.00 0.00 75 1012.3
20260502164052 7 227 22.5 37.0 0.00 0.00 0.00 76 1012.3
20260502163550 7 198 20.9 29.0 0.00 0.00 0.00 76 1012.3
20260502163050 7 222 20.9 32.2 0.00 0.00 0.00 77 1012.3
20260502162550 6 217 19.3 32.2 0.00 0.00 0.00 77 1012.3
20260502162049 6 178 20.9 27.4 0.00 0.00 0.00 78 1012.4
20260502161049 7 0 19.3 29.0 0.00 0.00 0.00 79 1012.5
20260502160550 6 187 19.3 27.4 0.00 0.00 0.00 78 1012.5
20260502151843 -17 0.0 0.0 0.00 0.00 0.00 1012.7
20260502150740 -17 0.0 0.0 0.00 0.00 0.00 1012.7
20260502150152 -17 0.0 0.0 0.00 0.00 0.00 1012.7
20260502130441 -17 0.0 0.0 0.00 0.00 0.00 1012.8
20260502123746 -17 0.0 0.0 0.00 0.00 0.00 1012.7
20260502123242 -17 0.0 0.0 0.00 0.00 0.00 1012.7
20260502122147 -17 0.0 0.0 0.00 0.00 0.00 1012.7
20260502121647 -17 0.0 0.0 0.00 0.00 0.00 1012.6
20260502120642 -17 0.0 0.0 0.00 0.00 0.00 1012.6
20260502115041 -17 0.0 0.0 0.00 0.00 0.00 1012.7
20260502114450 -17 0.0 0.0 0.00 0.00 0.00 1012.7
20260502113947 -17 0.0 0.0 0.00 0.00 0.00 1012.7
20260502113448 -17 0.0 0.0 0.00 0.00 0.00 1012.6
20260502112946 -17 0.0 0.0 0.00 0.00 0.00 1012.6
20260502112444 -17 0.0 0.0 0.00 0.00 0.00 1012.6
20260502111939 -17 0.0 0.0 0.00 0.00 0.00 1012.4
20260502111349 -17 0.0 0.0 0.00 0.00 0.00 1012.4
20260502110847 -17 0.0 0.0 0.00 0.00 0.00 1012.3
20260502110344 -17 0.0 0.0 0.00 0.00 0.00 1012.3
20260502105244 -17 0.0 0.0 0.00 0.00 0.00 1012.2
20260502104653 -17 0.0 0.0 0.00 0.00 0.00 1012.2
20260502103553 -17 0.0 0.0 0.00 0.00 0.00 1012.2
20260502103047 -17 0.0 0.0 0.00 0.00 0.00 1012.1
20260502101949 -17 0.0 0.0 0.00 0.00 0.00 1012.0
20260502101448 -17 0.0 0.0 0.00 0.00 0.00 1012.0
20260502100941 -17 0.0 0.0 0.00 0.00 0.00 1011.9
20260502100427 -17 0.0 0.0 0.00 0.00 0.00 1011.8
20260502091036 -17 0.0 0.0 0.00 0.00 0.00 1011.4
20260502071151 5 205 11.3 16.1 0.00 0.00 0.00 91 1011.6
20260502070651 5 0 11.3 19.3 0.00 0.00 0.00 91 1011.7
20260502070151 5 0 11.3 19.3 0.00 0.00 0.00 91 1011.6
20260502065151 5 178 11.3 17.7 0.00 0.00 0.00 91 1011.7
20260502064653 5 0 12.9 17.7 0.00 0.00 0.00 91 1011.7
20260502064151 5 200 12.9 17.7 0.00 0.00 0.00 91 1011.7
20260502063651 5 196 11.3 17.7 0.00 0.00 0.00 91 1011.8
20260502063148 5 171 11.3 17.7 0.00 0.00 0.00 91 1011.8
20260502062649 5 0 11.3 19.3 0.00 0.00 0.00 90 1011.9
20260502062147 5 0 12.9 22.5 0.00 0.00 0.00 90 1011.9
20260502061646 5 196 14.5 22.5 0.00 0.00 0.00 90 1011.8
20260502061147 5 0 14.5 20.9 0.00 0.00 0.00 90 1011.8
20260502060647 5 201 14.5 20.9 0.00 0.00 0.00 90 1011.9
20260502060147 5 205 14.5 20.9 0.00 0.00 0.00 90 1011.8
20260502055648 5 170 16.1 24.1 0.00 0.00 0.00 90 1011.8
20260502055147 5 185 16.1 24.1 0.00 0.00 0.00 89 1011.8
20260502054647 5 197 16.1 22.5 0.00 0.00 0.00 89 1011.8
20260502054147 5 205 16.1 24.1 0.00 0.00 0.00 89 1011.9
20260502053647 5 0 17.7 24.1 0.00 0.00 0.00 88 1011.9
20260502053147 5 0 17.7 25.7 0.00 0.00 0.00 88 1011.9
20260502052647 5 188 17.7 25.7 0.00 0.00 0.00 88 1012.0
20260502052147 5 225 17.7 25.7 0.00 0.00 0.00 88 1012.0
20260502051647 5 197 16.1 25.7 0.00 0.00 0.00 88 1012.0
20260502051147 6 205 17.7 25.7 0.00 0.00 0.00 88 1012.0
20260502050647 6 207 19.3 25.7 0.00 0.00 0.00 88 1012.0
20260502045642 6 192 17.7 24.1 0.00 0.00 0.00 87 1012.0
20260502045138 6 204 17.7 27.4 0.00 0.00 0.00 87 1012.0
20260502044639 6 217 16.1 27.4 0.00 0.00 0.00 87 1012.0
20260502044137 6 205 16.1 22.5 0.00 0.00 0.00 87 1012.0
20260502043636 6 224 16.1 22.5 0.00 0.00 0.00 86 1012.1
20260502043137 6 205 16.1 22.5 0.00 0.00 0.00 86 1012.1
20260502042633 6 200 16.1 19.3 0.00 0.00 0.00 86 1012.0
20260502042134 6 199 14.5 19.3 0.00 0.00 0.00 86 1012.0
20260502041631 6 0 14.5 19.3 0.00 0.00 0.00 86 1012.0
20260502041131 6 188 14.5 22.5 0.00 0.00 0.00 85 1012.0
20260502040629 6 217 12.9 22.5 0.00 0.00 0.00 85 1012.0
20260502040126 6 194 12.9 17.7 0.00 0.00 0.00 85 1011.9
20260502035627 6 198 12.9 17.7 0.00 0.00 0.00 85 1011.9
20260502035125 6 219 11.3 16.1 0.00 0.00 0.00 85 1012.0
20260502034624 6 0 9.7 14.5 0.00 0.00 0.00 85 1012.0
20260502034125 6 211 9.7 12.9 0.00 0.03 0.00 85 1012.0
20260502032624 6 0 9.7 12.9 0.00 0.03 0.00 84 1011.9
20260502032126 6 205 9.7 12.9 0.00 0.03 0.00 84 1011.9
20260502031624 6 200 9.7 14.5 0.00 0.03 0.00 84 1012.0
20260502030625 6 197 11.3 14.5 0.00 0.03 0.00 83 1012.0
20260502030125 6 0 11.3 16.1 0.00 0.03 0.00 83 1012.0
20260502025624 6 194 11.3 17.7 0.00 0.03 0.00 83 1012.1
20260502025123 6 197 12.9 17.7 0.00 0.03 0.00 83 1012.1
20260502024623 6 209 14.5 17.7 0.00 0.03 0.00 82 1012.1
20260502024124 6 0 14.5 19.3 0.00 0.03 0.00 82 1012.1
20260502023622 6 180 14.5 19.3 0.00 0.03 0.00 81 1012.1
20260502023117 6 203 14.5 19.3 0.00 0.03 0.00 81 1012.1
20260502022610 6 203 14.5 19.3 0.00 0.03 0.00 80 1012.2
20260502022104 6 0 16.1 19.3 0.00 0.03 0.00 79 1012.2
20260502021558 6 198 16.1 20.9 0.00 0.03 0.00 79 1012.2
20260502021052 6 200 14.5 20.9 0.00 0.03 0.00 78 1012.2
20260502020547 7 197 14.5 19.3 0.00 0.03 0.00 78 1012.1
20260502020043 7 201 14.5 17.7 0.00 0.03 0.00 78 1012.1
20260502015542 7 195 14.5 20.9 0.00 0.03 0.00 77 1012.2
20260502015043 7 202 14.5 22.5 0.00 0.03 0.00 77 1012.2
20260502014543 7 198 16.1 22.5 0.00 0.03 0.00 76 1012.1
20260502014042 7 198 16.1 24.1 0.00 0.03 0.00 77 1012.1
20260502013542 7 0 14.5 24.1 0.00 0.03 0.00 75 1012.0
20260502013043 7 0 12.9 19.3 0.00 0.03 0.00 75 1012.0
20260502012042 7 202 14.5 20.9 0.00 0.03 0.00 70 1012.0
20260502011542 7 205 16.1 22.5 0.00 0.03 0.00 70 1012.0
20260502011042 7 225 16.1 25.7 0.00 0.03 0.00 70 1012.1
20260502010543 7 194 14.5 25.7 0.00 0.03 0.00 68 1012.0
20260502005543 7 221 16.1 25.7 0.00 0.03 0.00 69 1012.0
20260502005043 7 236 16.1 25.7 0.00 0.03 0.00 70 1012.0
20260502004543 7 193 16.1 24.1 0.00 0.03 0.00 68 1011.9
20260502004044 8 219 14.5 24.1 0.00 0.03 0.00 66 1011.9
20260502003536 8 192 6.4 24.1 0.00 0.03 0.00 61 1011.8
20260502003031 8 210 1.6 4.8 0.00 0.03 0.00 59 1011.7
20260502002524 8 218 0.0 4.8 0.00 0.03 0.00 58 1011.6
20260502001514 8 214 0.0 6.4 0.00 0.03 0.00 57 1011.5
20260502001007 8 221 1.6 9.7 0.00 0.03 0.00 56 1011.5
20260502000501 8 214 3.2 14.5 0.00 0.03 0.00 56 1011.5
20260501235448 8 239 9.7 24.1 0.00 0.03 0.00 53 1011.4
20260501234436 9 223 1.6 12.9 0.00 0.03 0.00 51 1011.3
20260501233931 9 225 0.0 1.6 0.00 0.03 0.00 52 1011.3
20260501233424 9 271 0.0 11.3 0.00 0.03 0.00 52 1011.2